Date String (YYYY-MM-DD hh:mm:ss) UTC,Instrument flags,Ambient pressure (hPa),Sample flow (lpm),Bypass flow (lpm),Sample temperature (°C),Ambient temperature (°C),ASC tube jacket temperature (°C),LED temperature (°C),Box temperature (°C),Sample RH (%),Span deviation,Mass concentration (μg/m³),Mass concentration (μg/m³),Mass concentration (μg/m³)
DateTimeUTC,F1_M11,P_M11,Q1_M11,Q2_M11,T1_M11,T2_M11,T3_M11,T4_M11,T5_M11,U1_M11,ZSPAN_M11,X0_M11,X2_M11,X1_M11
2022-08-09 01:00:00,,0829.1,5.00,0.00,29.5,27.9,00.0,38.2,31.4,29.7,0000.0,0009.95,0004.93,0004.28
2022-08-09 01:01:00,,0829.1,5.01,0.00,29.5,28.1,00.0,38.3,31.5,29.4,0000.0,0009.49,0004.93,0004.28
2022-08-09 01:02:00,,0829.2,5.00,0.00,29.6,28.3,00.0,38.3,31.6,29.1,0000.0,0009.05,0004.91,0004.28
2022-08-09 01:03:00,,0829.1,5.00,0.00,29.6,28.4,00.0,38.3,31.6,28.8,0000.0,0009.01,0004.90,0004.27
2022-08-09 01:04:00,,0829.0,4.99,0.00,29.6,27.9,00.0,38.3,31.5,28.8,0000.0,0008.90,0004.86,0004.26
2022-08-09 01:05:00,,0828.6,5.01,0.00,29.6,27.4,00.0,38.3,31.4,29.2,0000.0,0008.90,0004.87,0004.28
2022-08-09 01:06:00,,0829.0,5.00,0.00,29.5,27.3,00.0,38.3,31.3,29.9,0000.0,0008.82,0004.85,0004.28
2022-08-09 01:07:00,,0828.9,5.00,0.00,29.4,27.4,00.0,38.2,31.2,29.9,0000.0,0008.73,0004.81,0004.27
2022-08-09 01:08:00,,0829.2,4.99,0.00,29.4,27.6,00.0,38.2,31.3,30.4,0000.0,0008.09,0004.81,0004.28
2022-08-09 01:09:00,,0829.1,5.01,0.00,29.5,27.8,00.0,38.2,31.4,29.5,0000.0,0007.99,0004.81,0004.27
2022-08-09 01:10:00,,0829.2,4.99,0.00,29.5,28.0,00.0,38.3,31.5,30.1,0000.0,0007.99,0004.82,0004.27
2022-08-09 01:11:00,,0829.2,4.99,0.00,29.5,28.2,00.0,38.3,31.6,29.4,0000.0,0008.00,0004.84,0004.27
2022-08-09 01:12:00,,0829.1,5.00,0.00,29.6,28.4,00.0,38.3,31.7,28.9,0000.0,0008.03,0004.84,0004.26
2022-08-09 01:13:00,,0829.1,5.00,0.00,29.6,28.3,00.0,38.3,31.6,29.1,0000.0,0008.30,0004.85,0004.25
2022-08-09 01:14:00,,0828.7,5.01,0.00,29.6,27.7,00.0,38.3,31.3,28.9,0000.0,0008.47,0004.87,0004.24
2022-08-09 01:15:00,,0829.1,5.00,0.00,29.5,27.4,00.0,38.3,31.3,28.4,0000.0,0008.72,0004.88,0004.24
2022-08-09 01:16:00,,0829.0,4.99,0.00,29.5,27.3,00.0,38.3,31.3,28.4,0000.0,0008.97,0004.85,0004.23
2022-08-09 01:17:00,,0829.0,5.01,0.00,29.5,27.5,00.0,38.2,31.3,28.7,0000.0,0009.07,0004.87,0004.24
2022-08-09 01:18:00,,0828.7,4.99,0.00,29.5,27.7,00.0,38.2,31.3,29.1,0000.0,0009.46,0004.93,0004.24
2022-08-09 01:19:00,,0828.9,5.01,0.00,29.5,27.9,00.0,38.3,31.4,29.3,0000.0,0009.84,0004.94,0004.24
2022-08-09 01:20:00,,0829.0,5.00,0.00,29.5,28.1,00.0,38.3,31.5,29.3,0000.0,0009.95,0004.95,0004.24
2022-08-09 01:21:00,,0828.8,5.00,0.00,29.6,28.3,00.0,38.3,31.6,29.1,0000.0,0010.40,0004.95,0004.25
2022-08-09 01:22:00,,0828.6,5.00,0.00,29.6,28.5,00.0,38.3,31.7,29.3,0000.0,0010.55,0004.94,0004.25
2022-08-09 01:23:00,,0828.9,5.00,0.00,29.7,28.1,00.0,38.3,31.5,29.8,0000.0,0010.62,0004.97,0004.25
2022-08-09 01:24:00,,0828.9,5.00,0.00,29.6,27.6,00.0,38.3,31.4,30.3,0000.0,0011.17,0004.98,0004.25
2022-08-09 01:25:00,,0828.9,5.00,0.00,29.6,27.4,00.0,38.3,31.3,30.2,0000.0,0012.22,0004.97,0004.24
2022-08-09 01:26:00,,0828.9,5.01,0.00,29.5,27.5,00.0,38.3,31.3,29.4,0000.0,0012.29,0004.95,0004.23
2022-08-09 01:27:00,,0828.9,5.00,0.00,29.5,27.6,00.0,38.3,31.3,29.3,0000.0,0012.11,0004.97,0004.22
2022-08-09 01:28:00,,0828.9,5.00,0.00,29.5,27.8,00.0,38.3,31.4,29.2,0000.0,0012.04,0004.92,0004.21
2022-08-09 01:29:00,,0829.0,5.00,0.00,29.5,28.0,00.0,38.3,31.5,29.8,0000.0,0012.39,0004.88,0004.20
2022-08-09 01:30:00,,0829.1,5.00,0.00,29.6,28.2,00.0,38.3,31.6,29.8,0000.0,0012.15,0004.89,0004.19
2022-08-09 01:31:00,,0829.0,5.00,0.00,29.6,28.4,00.0,38.3,31.6,29.9,0000.0,0012.24,0004.86,0004.18
2022-08-09 01:32:00,,0828.9,4.99,0.00,29.7,28.4,00.0,38.3,31.6,28.4,0000.0,0011.71,0004.81,0004.16
2022-08-09 01:33:00,,0829.0,5.00,0.00,29.6,27.8,00.0,38.3,31.5,24.8,0000.0,0011.64,0004.78,0004.13
2022-08-09 01:34:00,,0829.0,4.99,0.00,29.6,27.4,00.0,38.3,31.4,23.8,0000.0,0011.54,0004.72,0004.09
2022-08-09 01:35:00,,0829.0,5.01,0.00,29.5,27.3,00.0,38.3,31.3,24.1,0000.0,0010.63,0004.63,0004.04
2022-08-09 01:36:00,,0829.0,4.99,0.00,29.5,27.4,00.0,38.3,31.2,24.5,0000.0,0009.36,0004.56,0003.99
2022-08-09 01:37:00,,0828.9,5.00,0.00,29.4,27.6,00.0,38.3,31.3,23.8,0000.0,0009.07,0004.52,0003.97
2022-08-09 01:38:00,,0829.0,5.00,0.00,29.5,27.8,00.0,38.3,31.4,24.1,0000.0,0008.96,0004.48,0003.94
2022-08-09 01:39:00,,0829.1,5.01,0.00,29.5,28.1,00.0,38.3,31.5,24.3,0000.0,0008.87,0004.46,0003.90
2022-08-09 01:40:00,,0829.0,5.00,0.00,29.6,28.2,00.0,38.3,31.6,25.2,0000.0,0008.15,0004.44,0003.87
2022-08-09 01:41:00,,0828.9,4.98,0.00,29.6,28.4,00.0,38.3,31.7,27.0,0000.0,0008.01,0004.39,0003.86
2022-08-09 01:42:00,,0828.8,5.00,0.00,29.6,28.1,00.0,38.3,31.6,27.9,0000.0,0007.70,0004.36,0003.83
2022-08-09 01:43:00,,0829.2,5.01,0.00,29.6,27.5,00.0,38.3,31.4,28.3,0000.0,0007.63,0004.34,0003.79
2022-08-09 01:44:00,,0829.1,5.01,0.00,29.5,27.3,00.0,38.3,31.3,27.8,0000.0,0007.51,0004.33,0003.79
2022-08-09 01:45:00,,0829.0,4.99,0.00,29.5,27.3,00.0,38.3,31.3,28.5,0000.0,0007.49,0004.35,0003.80
2022-08-09 01:46:00,,0829.1,5.00,0.00,29.4,27.4,00.0,38.2,31.2,28.7,0000.0,0007.58,0004.38,0003.83
2022-08-09 01:47:00,,0829.0,5.00,0.00,29.4,27.6,00.0,38.2,31.3,28.5,0000.0,0007.75,0004.43,0003.84
2022-08-09 01:48:00,,0828.8,5.00,0.00,29.5,27.9,00.0,38.2,31.4,27.8,0000.0,0007.65,0004.43,0003.85
2022-08-09 01:49:00,,0828.9,4.99,0.00,29.5,28.1,00.0,38.3,31.5,27.8,0000.0,0008.01,0004.44,0003.86
2022-08-09 01:50:00,,0828.8,5.01,0.00,29.5,28.3,00.0,38.3,31.6,27.3,0000.0,0008.12,0004.45,0003.86
2022-08-09 01:51:00,,0828.8,5.00,0.00,29.6,28.4,00.0,38.3,31.6,26.3,0000.0,0008.23,0004.43,0003.86
2022-08-09 01:52:00,,0829.0,5.00,0.00,29.6,28.2,00.0,38.3,31.6,24.0,0000.0,0008.51,0004.44,0003.85
2022-08-09 01:53:00,,0828.7,5.02,0.00,29.6,27.6,00.0,38.3,31.4,22.9,0000.0,0008.91,0004.43,0003.85
2022-08-09 01:54:00,,0828.7,4.99,0.00,29.5,27.2,00.0,38.3,31.3,22.4,0000.0,0009.01,0004.42,0003.85
2022-08-09 01:55:00,,0828.6,5.00,0.00,29.5,27.2,00.0,38.2,31.2,22.8,0000.0,0009.00,0004.42,0003.84
2022-08-09 01:56:00,,0828.6,5.01,0.00,29.4,27.3,00.0,38.2,31.2,23.6,0000.0,0008.99,0004.41,0003.84
2022-08-09 01:57:00,,0829.1,4.99,0.00,29.4,27.5,00.0,38.2,31.2,23.5,0000.0,0008.97,0004.41,0003.84
2022-08-09 01:58:00,,0829.1,4.99,0.00,29.4,27.8,00.0,38.2,31.3,22.7,0000.0,0008.94,0004.41,0003.85
2022-08-09 01:59:00,,0829.2,5.01,0.00,29.5,28.0,00.0,38.2,31.4,21.8,0000.0,0009.02,0004.43,0003.86
